Regional Weather Roundup
Issued by NWS

Home | Current Version | Previous Version | Graphics & Text | Print | Product List | Glossary On
Versions: 1 2 3 4 5 6 7 8 9 10 11 12 13 14 15 16 17 18 19 20 21 22 23 24 25 26 27 28 29 30 31 32 33 34 35 36 37 38 39 40 41 42 43 44 45 46 47 48 49 50
000
ASUS45 KBOI 281110
RWRID

IDAHO REGIONAL WEATHER ROUNDUP
NATIONAL WEATHER SERVICE BOISE ID
500 AM MDT FRI AUG 28 2015

NOTE: "FAIR" INDICATES FEW OR NO CLOUDS BELOW 12000 FEET
WITH NO SIGNIFICANT WEATHER AND/OR OBSTRUCTIONS TO VISIBILITY

IDZ012-014-281200-
SOUTHWEST IDAHO


CITY           SKY/WX    TMP DP  RH WIND       PRES   REMARKS
BOISE          PTCLDY    75  36  24 SE15      30.00F
CALDWELL       PTCLDY    64  37  36 SE6       30.01R
MOUNTAIN HOME  MOCLDY    64  40  42 E12       30.04S
$$

IDZ016-017-281200-
SOUTHCENTRAL IDAHO


CITY           SKY/WX    TMP DP  RH WIND       PRES   REMARKS
BURLEY         CLEAR     55  48  77 CALM      30.13F
JEROME         CLEAR     61  43  51 N7        30.13R
TWIN FALLS     CLEAR     62  36  37 SE8       30.13R
$$

IDZ019>023-281200-
SOUTHEAST IDAHO


CITY           SKY/WX    TMP DP  RH WIND       PRES   REMARKS
IDAHO FALLS    CLEAR     49  44  83 CALM      30.20R
POCATELLO      CLEAR     56  43  61 E8        30.20R
REXBURG        CLEAR     49  42  77 NE5       30.21R
$$

IDZ006-010-011-018-031-032-281200-
CENTRAL IDAHO MOUNTAINS


CITY           SKY/WX    TMP DP  RH WIND       PRES   REMARKS
MCCALL         MOCLDY    49  37  63 NE3       30.16S
HAILEY         CLEAR     55  37  50 NW12      30.26S
STANLEY          N/A     37  27  67 CALM      30.34R
SALMON         CLOUDY    50  45  81 SW3       30.17S
CHALLIS        PTCLDY    52  31  44 CALM      30.23S HAZE
$$

IDZ002-004-006-007-026-281200-
NORTHERN IDAHO


CITY           SKY/WX    TMP DP  RH WIND       PRES   REMARKS
LEWISTON       CLOUDY    68  41  37 CALM      29.94F
LOWELL           N/A     57  50  77 N6        30.04S
COEUR D`ALENE  MOCLDY    59  45  58 NE6       29.98S
MULLAN PASS    MOCLDY    59  34  39 S6        30.19F HAZE
$$


USA.gov is the U.S. government's official web portal to all federal, state and local government web resources and services.